Tools
Make the most of your Satcat data
Time converter
UTC/ISO 8601 | 2024-11-17T05:46:24.572Z |
TAI (+37s UTC) | 2024-11-17T05:47:01.572 |
GPS (+18s UTC) | 2024-11-17T05:46:42.572 |
Local | 11/17/2024, 5:46:24 AM |
Greenwich Sidereal Time | 09:33:32 |
Local Sidereal Time | Loading... |
Day of year | 322 |
GPS Week | 2,341 |
TLE comprehension assistant
Both 2LE and 3LE are accepted
ISO8601 Format
Parsed TLE
Line 1 Elements
Line 2 Elements
TLE Values
TLE epoch | 2024-05-16T04:53:14.000Z |
d/dt mean motion | 0.00020937 |
d²/dt² mean motion | 0 |
BSTAR | 0.00035601 |
Orbit inclination | 0.90125 rad 51.6377° |
RAAN | 1.98832 rad 113.9222° |
Eccentricity | 0.000331 |
Arg. of perigee | 3.02513 rad 173.3272° |
Mean anomaly | 0.00073 rad 0.0417° |
Mean motion | 0.0677 rad/min 3.878 deg/min |
Orbital period | 92.8307 mins/orbit |
Rev. num. at epoch | 45358 |
Propagated values
TEME Pos x km | 4967.510693245155 |
TEME Pos y km | -3354.652272762539 |
TEME Pos z km | -3149.4559547744057 |
TEME Vel x km | 5.1148382850079575 |
TEME Vel y km | 3.0346257037362405 |
TEME Vel z km | 4.845181595061863 |
ECF Pos x km | -1539.7688776380098 |
ECF Pos y km | -5793.010112377952 |
ECF Pos z km | -3149.4559547744057 |
ECF Vel x km | 4.544379054027325 |
ECF Vel y km | -3.836553512839034 |
ECF Vel z km | 4.845181595061863 |
Latitude degrees | -0.48638495913912094 |
Longitude degrees | -1.830587285567672 |
Altitude km | 397.6898604705648 |
NOAA APT Converter
Accepts 11025 KHz .wav files